Location: Unspecified
(34.4950°S, 58.5160°W)
Time: 21:51:43
(UTC+00:00)

Daily predictions for brighter satellites

Satellite Brightness Start Highest point End
(mag) Time Altitude Azimuth Time Altitude Azimuth Time Altitude Azimuth
ASTEX 1 4.2 23:00:42 10° NE 23:05:09 34° ESE 23:09:39 10° SSE
BREEZE-M DEB (TANK) 3.7 23:01:36 10° NNW 23:05:57 30° NE 23:09:39 10° ESE
ATLAS 3B R/B 4.1 23:02:34 10° NE 23:06:06 14° ENE 23:09:33 10° ESE
Tsikada Rocket 4.0 23:01:52 10° N 23:08:04 81° E 23:14:18 10° S
Cosmos 2034 Rocket 4.1 23:04:29 10° S 23:10:45 88° WNW 23:16:56 10° N
YAOGAN 1 2.6 23:13:20 10° SSE 23:17:39 59° E 23:21:54 10° N
Cosmos 1782 3.3 23:14:29 10° NNE 23:18:03 35° E 23:21:40 10° SSE
CZ-4B R/B 3.7 23:18:06 10° S 23:22:58 75° WSW 23:27:53 10° NNW
Resurs 1-3 4.5 23:25:13 10° SE 23:29:01 28° E 23:32:47 10° NNE
Meteor 1-25 Rocket 4.5 23:23:43 10° S 23:29:09 48° ESE 23:34:31 10° NNE
Cosmos 1602 4.2 23:25:50 10° SSW 23:29:35 61° W 23:33:16 10° N
IGS 5A 4.3 23:29:51 10° S 23:33:54 55° WSW 23:37:55 10° NNW
Cosmos 371 Rocket 3.5 23:29:42 10° S 23:34:28 53° ESE 23:39:04 11° NNE
Cosmos 1818 3.9 23:31:04 10° SW 23:36:25 67° WNW 23:41:44 10° NNE
Cosmos 1271 Rocket 2.6 23:35:40 10° S 23:39:32 80° E 23:43:17 10° N
Landsat 7 3.7 23:36:38 10° SSE 23:41:24 71° E 23:46:06 10° N
Okean O Rocket 3.0 23:39:19 10° SE 23:42:23 18° E 23:42:39 18° E
Resurs 01 Rocket 3.3 23:40:33 10° SE 23:42:48 15° E 23:42:48 15° E
CZ-4B R/B 3.9 23:38:38 10° SE 23:43:18 30° E 23:47:55 10° NNE
CZ-4B R/B 2.6 23:43:52 10° S 23:47:29 83° WSW 23:51:09 10° NNW
Aureole 3 Rocket 2.8 23:45:40 10° SSW 23:48:47 58° W 23:51:50 10° N
Aurora 2 Rocket 4.0 23:45:16 10° WNW 23:50:08 27° N 23:52:16 19° NE
Cosmos 1378 4.5 23:51:22 20° ESE 23:51:22 20° ESE 23:53:20 10° SE
APEX 3.1 23:48:35 10° S 23:50:55 29° ESE 23:50:56 29° ESE
SL-27 R/B 2.0 23:49:34 10° S 23:52:31 56° ESE 23:53:30 34° NE
Meteor 1-29 4.0 23:53:06 10° SSE 23:53:46 17° SSE 23:53:46 17° SSE
